TimeEDT,TemperatureF,Dew PointF,Humidity,Sea Level PressureIn,VisibilityMPH,Wind Direction,Wind SpeedMPH,Gust SpeedMPH,PrecipitationIn,Events,Conditions,WindDirDegrees,DateUTC
12:53 AM,55.9,54.0,93,30.05,10.0,Calm,Calm,-,N/A,,Clear,0,2013-09-04 04:53:00
1:53 AM,57.0,54.0,89,30.04,10.0,Calm,Calm,-,N/A,,Clear,0,2013-09-04 05:53:00
2:53 AM,55.0,53.1,93,30.04,2.0,South,3.5,-,N/A,,Clear,170,2013-09-04 06:53:00
3:02 AM,55.4,53.6,94,30.05,6.0,SSE,3.5,-,N/A,,Clear,160,2013-09-04 07:02:00
3:12 AM,53.6,51.8,94,30.05,1.8,SSE,3.5,-,N/A,,Clear,160,2013-09-04 07:12:00
3:24 AM,55.4,53.6,94,30.05,3.0,Calm,Calm,-,N/A,,Clear,0,2013-09-04 07:24:00
3:30 AM,55.4,53.6,94,30.05,1.8,Calm,Calm,-,N/A,,Clear,0,2013-09-04 07:30:00
3:45 AM,55.4,53.6,94,30.05,3.0,Calm,Calm,-,N/A,,Clear,0,2013-09-04 07:45:00
3:53 AM,55.9,55.0,97,30.05,5.0,Calm,Calm,-,N/A,,Clear,0,2013-09-04 07:53:00
4:07 AM,55.4,53.6,94,30.05,1.8,Calm,Calm,-,N/A,,Clear,0,2013-09-04 08:07:00
4:15 AM,55.4,53.6,94,30.05,1.0,Calm,Calm,-,N/A,,Clear,0,2013-09-04 08:15:00
4:44 AM,53.6,53.6,100,30.06,2.0,Calm,Calm,-,N/A,,Clear,0,2013-09-04 08:44:00
4:49 AM,53.6,53.6,100,30.06,1.2,Calm,Calm,-,N/A,,Clear,0,2013-09-04 08:49:00
4:53 AM,54.0,53.1,97,30.06,1.0,Calm,Calm,-,N/A,,Clear,0,2013-09-04 08:53:00
5:00 AM,53.6,53.6,100,30.06,2.5,Calm,Calm,-,N/A,,Clear,0,2013-09-04 09:00:00
5:07 AM,53.6,53.6,100,30.06,4.0,Calm,Calm,-,N/A,,Clear,0,2013-09-04 09:07:00
5:20 AM,55.4,53.6,94,30.07,1.8,Calm,Calm,-,N/A,,Clear,0,2013-09-04 09:20:00
5:24 AM,53.6,53.6,100,30.06,0.8,Calm,Calm,-,N/A,,Clear,0,2013-09-04 09:24:00
5:32 AM,55.4,53.6,94,30.07,1.5,Calm,Calm,-,N/A,,Clear,0,2013-09-04 09:32:00
5:34 AM,55.4,53.6,94,30.07,3.0,Calm,Calm,-,N/A,,Clear,0,2013-09-04 09:34:00
5:53 AM,53.1,52.0,96,30.06,3.0,South,3.5,-,N/A,,Clear,170,2013-09-04 09:53:00
6:00 AM,53.6,51.8,94,30.06,2.0,Calm,Calm,-,0.01,,Clear,0,2013-09-04 10:00:00
6:09 AM,53.6,51.8,94,30.06,5.0,Calm,Calm,-,0.01,,Clear,0,2013-09-04 10:09:00
6:27 AM,55.4,53.6,94,30.06,1.8,Calm,Calm,-,0.01,,Clear,0,2013-09-04 10:27:00
6:37 AM,53.6,53.6,100,30.06,1.2,Calm,Calm,-,0.01,,Clear,0,2013-09-04 10:37:00
6:50 AM,53.6,53.6,100,30.07,1.5,Calm,Calm,-,0.01,,Clear,0,2013-09-04 10:50:00
6:53 AM,54.0,53.1,97,30.07,2.5,Calm,Calm,-,0.01,,Clear,0,2013-09-04 10:53:00
7:00 AM,53.6,53.6,100,30.07,3.0,Calm,Calm,-,N/A,,Clear,0,2013-09-04 11:00:00
7:17 AM,53.6,53.6,100,30.08,1.8,Calm,Calm,-,N/A,,Clear,0,2013-09-04 11:17:00
7:25 AM,55.4,53.6,94,30.08,1.2,Calm,Calm,-,N/A,,Clear,0,2013-09-04 11:25:00
7:27 AM,55.4,53.6,94,30.08,2.0,Calm,Calm,-,N/A,,Clear,0,2013-09-04 11:27:00
7:35 AM,53.6,53.6,100,30.08,3.0,Calm,Calm,-,N/A,,Clear,0,2013-09-04 11:35:00
7:53 AM,55.0,55.0,100,30.09,5.0,Calm,Calm,-,N/A,,Clear,0,2013-09-04 11:53:00
8:53 AM,63.0,61.0,93,30.09,10.0,Calm,Calm,-,N/A,,Clear,0,2013-09-04 12:53:00
9:53 AM,72.0,62.1,71,30.09,10.0,West,9.2,-,N/A,,Clear,270,2013-09-04 13:53:00
10:53 AM,73.0,60.1,64,30.09,10.0,West,15.0,23.0,N/A,,Clear,270,2013-09-04 14:53:00
11:53 AM,73.9,60.1,62,30.10,10.0,West,15.0,-,N/A,,Clear,270,2013-09-04 15:53:00
12:53 PM,75.9,60.1,58,30.11,10.0,West,11.5,17.3,N/A,,Clear,270,2013-09-04 16:53:00
1:53 PM,75.9,60.1,58,30.11,10.0,WSW,13.8,18.4,N/A,,Clear,250,2013-09-04 17:53:00
2:53 PM,75.9,60.1,58,30.11,10.0,WSW,12.7,-,N/A,,Clear,250,2013-09-04 18:53:00
3:53 PM,75.0,61.0,62,30.09,10.0,West,10.4,16.1,N/A,,Clear,270,2013-09-04 19:53:00
4:53 PM,73.9,61.0,64,30.09,10.0,West,8.1,16.1,N/A,,Clear,280,2013-09-04 20:53:00
5:53 PM,73.0,61.0,66,30.09,10.0,West,5.8,-,N/A,,Clear,270,2013-09-04 21:53:00
6:53 PM,73.9,61.0,64,30.09,10.0,West,6.9,-,N/A,,Clear,280,2013-09-04 22:53:00
7:53 PM,70.0,62.1,76,30.10,10.0,NNW,4.6,-,N/A,,Clear,340,2013-09-04 23:53:00
8:53 PM,66.0,61.0,84,30.10,10.0,Calm,Calm,-,N/A,,Clear,0,2013-09-05 00:53:00
9:53 PM,63.0,60.1,90,30.11,10.0,West,4.6,-,N/A,,Clear,270,2013-09-05 01:53:00
10:53 PM,62.1,59.0,90,30.12,10.0,Calm,Calm,-,N/A,,Clear,0,2013-09-05 02:53:00
11:53 PM,64.0,61.0,90,30.13,10.0,Calm,Calm,-,N/A,,Mostly Cloudy,0,2013-09-05 03:53:00